Regional Weather Roundup
Issued by NWS

Home | Current Version | Previous Version | Graphics & Text | Print | Product List | Glossary On
Versions: 1 2 3 4 5 6 7 8 9 10 11 12 13 14 15 16 17 18 19 20 21 22 23 24 25 26 27 28 29 30 31 32 33 34 35 36 37 38 39 40 41 42 43 44 45 46 47 48 49 50
000
ASUS45 KSLC 210210
RWRUT

UTAH REGIONAL WEATHER ROUNDUP
NATIONAL WEATHER SERVICE SALT LAKE CITY UT
700 PM MST SAT DEC 20 2014

UTZ001>011-023>025-210300-

NORTHERN UTAH

CITY           SKY/WX    TMP DP  RH WIND       PRES   REMARKS
BRIGHAM CITY   CLOUDY    40  35  82 S3        30.05F
HILL AFB       CLOUDY    38  37  97 S12       30.03F WCI  30
LOGAN          CLOUDY    38  35  89 CALM      30.02F
OGDEN          CLOUDY    39  36  89 SE8       30.03F WCI  33
PROVO AIRPORT  MOCLDY    36  34  93 VRB3      30.10S
SALT LAKE CITY CLOUDY    41  34  76 SE9       30.05F
VERNAL         CLOUDY    29  26  89 CALM      30.08F
WENDOVER       CLOUDY    36  28  75 CALM      30.04F
HEBER CITY     CLOUDY    34  32  93 SE3       30.06S
WEST JORDAN    CLOUDY    39  37  93 S14       30.06F WCI  31

$$

UTZ012>022-026-027-210300-

SOUTHERN/CENTRAL UTAH

CITY           SKY/WX    TMP DP  RH WIND       PRES   REMARKS
BLANDING       CLOUDY    32  31  96 CALM      30.18F
BRYCE CANYON   MOCLDY    26  22  84 W7        30.11S WCI  18
CEDAR CITY     CLOUDY    37  30  75 SW5       30.09F WCI  33
DELTA          CLOUDY    37  34  89 NE7       30.09R WCI  31
MILFORD        CLOUDY    41  30  65 S14       30.06F
MOAB/CYNLANDS  CLOUDY    36  32  85 NW6       30.11R WCI  31
PRICE          CLOUDY    31  26  82 CALM      30.11S
ST GEORGE      CLOUDY    46  34  61 SE5       30.14F
KANAB            N/A     36  32  87 CALM      30.16R

$$

REGIONAL REPORTS     COLORADO/ARIZONA

CITY           SKY/WX    TMP DP  RH WIND       PRES   REMARKS
CRAIG, CO      CLOUDY    29  27  92 CALM      30.06R
GRAND JUNCTION CLOUDY    34  30  85 NW6       30.11S WCI  29
RIFLE          LGT SNOW  30  28  92 SE3       30.11S FOG
MONTROSE       CLOUDY    33  25  72 NE5       30.11F WCI  29
CORTEZ         CLOUDY    33  28  81 E3        30.12R
PAGE, AZ       PTCLDY    38  30  73 SE3       30.14R
GRAND CANYON   CLOUDY    30  25  81 CALM      30.15R
KINGMAN        MOCLDY    42  36  79 SW3       30.13R
FLAGSTAFF      CLOUDY    35  25  66 SW3       30.14F

$$

REGIONAL REPORTS    NEVADA/IDAHO/WYOMING

CITY           SKY/WX    TMP DP  RH WIND       PRES   REMARKS
LAS VEGAS, NV  MOCLDY    52  37  56 S5        30.11R
ELY            CLOUDY    34  31  88 NW3       30.11R
ELKO           FLURRIES  34  32  92 SW10      30.08R WCI  26
POCATELLO, ID  CLOUDY    40  34  79 S16       29.98F WCI  31
BURLEY         CLOUDY    40  36  86 SW8       29.98R WCI  34
EVANSTON, WY   CLOUDY    30  29  96 SW12      30.02F WCI  20
ROCK SPRINGS   CLOUDY    30  27  88 SW16      29.99S WCI  19
KEMMERER       CLOUDY    30  28  93 SW8       29.99F WCI  23

$$


USA.gov is the U.S. government's official web portal to all federal, state and local government web resources and services.